Current Version              Previous Version:    01  02  03  04  05  06  07  08  09  10  11  12  13  14  15  16  17  18  19  20  21  22  23  24  25  26  27  28  29  30  
   31  32  33  34  35  36  37  38  39  40  41  42  43  44  45  46  47  48  49  50  51  52  53  54  55  56  57  58  59  60  

[Printable]
593
ASUS44 KLUB 210310
RWRTX
WEST TEXAS WEATHER ROUNDUP
NATIONAL WEATHER SERVICE LUBBOCK TX
1000 PM CDT SUN APR 20 2014

NOTE: "FAIR" INDICATES FEW OR NO CLOUDS BELOW 12,000 FEET WITH NO
SIGNIFICANT WEATHER AND/OR OBSTRUCTIONS TO VISIBILITY.

TXZ004-006>008-010-012-014-016-OKZ002-210400-
TEXAS PANHANDLE/OKLAHOMA PANHANDLE

CITY           SKY/WX    TMP DP  RH WIND       PRES   REMARKS
AMARILLO       PTCLDY    60  49  66 SW3       29.99R
BORGER         MOCLDY    62  56  80 SE8       29.97R
CANADIAN       RAIN      61  60  96 S18G24    29.97F
DALHART        MOCLDY    60  43  53 CALM      30.01R
DUMAS          PTCLDY    58  45  61 CALM      29.99R
GUYMON         MOCLDY    59  51  75 S9        29.95R
HEREFORD       PTCLDY    59  50  72 W7        30.02R
PAMPA          CLOUDY    57  56  94 SE15G21   29.99R FOG
PERRYTON       CLOUDY    55  53  94 SE9       29.98R
$$

TXZ026-029-035-045-048-210400-
SOUTHERN PANHANDLE/SOUTH PLAINS/ROLLING PLAINS

CITY           SKY/WX    TMP DP  RH WIND       PRES   REMARKS
CHILDRESS      CLOUDY    60  56  86 E15G23    29.99R
SEMINOLE       CLEAR     66  49  54 SW6       30.03S
LUBBOCK        PTCLDY    62  55  77 NW3       29.99R
PLAINVIEW      CLOUDY    57  52  82 W7        29.98R
SNYDER         CLEAR     68  62  82 S10       30.00R
$$

TXZ052-054-060>062-072-078-127-140-154-169-210400-
PERMIAN BASIN/CONCHO VALLEY/BIG COUNTRY/EDWARDS PLATEAU

CITY           SKY/WX    TMP DP  RH WIND       PRES   REMARKS
ABILENE        CLOUDY    66  62  87 S14       30.01S
BIG SPRING     CLEAR     66  56  71 SE13      30.03R
BROWNWOOD      CLOUDY    64  64 100 SE6       30.06S
JUNCTION       PTCLDY    67  63  87 S7        30.06R
MIDLAND        CLEAR     69  61  75 S12       30.02R
ODESSA         CLEAR     69  59  70 S12       30.04R
SAN ANGELO     CLEAR     67  62  84 S7        30.03R
SONORA         MOCLDY    66  64  94 S6        30.08R
SWEETWATER     MOCLDY    66  65  95 SE17      30.03S
WINK           CLEAR     72  43  35 W9        30.00R
$$

TXZ055-058-074-075-080-082-210400-
FAR WEST/SOUTHWEST MOUNTAINS/TRANS PECOS

CITY           SKY/WX    TMP DP  RH WIND       PRES   REMARKS
ALPINE         PTCLDY    65  46  50 CALM      30.17R
DRYDEN           N/A     70  64  81 NE6       30.03R
EL PASO        PTCLDY    73  35  25 W5        30.07R
FORT STOCKTON  PTCLDY    68  57  68 SE12      30.05R
GUADALUPE PASS CLEAR     62  37  39 W13       30.17R
MARFA          PTCLDY    64  36  34 NW9       30.15R
PECOS          CLEAR     68  46  45 W6        30.01R
PRESIDIO       FAIR      80  37  21 N7        29.99R
$$

TXZ014-016-019-021>030-083-210400
TEXAS TECH WEST TEXAS MESONET/TEXAS PANHANDLE/NORTHERN SOUTH PLAINS

CITY           SKY/WX    TMP DP  RH WIND       PRES   REMARKS
ABERNATHY 5ENE   N/A     56  51  81 SW6       29.99R
AMARILLO 9NNE    N/A     58  51  77 N3        29.98R
AMARILLO 7SSE    N/A     56  50  79 SW8       29.99R
AMHERST 1NE      N/A     57  53  84 SW5       30.02R
BOOTLEG 11WNW    N/A     54  41  61 W9        30.07R
CANADIAN 6E      N/A     59  58  97 S8        29.99R
CAPROCK CYN SP   N/A     60  55  86 N9        29.97R
CHILDRESS 2NNE   N/A     57  56  96 NE17      29.97R
CLARENDON 2WSW   N/A     57  54  89 NE8       29.98R
CLAUDE 12SW      N/A     58  55  91 E5        29.99R
DIMMITT 2NE      N/A     57  51  80 SW8       30.01R
FLOYDADA 2NNE    N/A     61  51  70 S5        29.96F
FRIONA 2NE       N/A     57  50  79 W8        30.04R
GOODLETT 3W      N/A     60  57  90 SE16      29.97R
HART 3N          N/A     55  49  80 W7        30.01R
HEREFORD 2NW     N/A     57  49  74 SW9       30.01R
MCLEAN 1E        N/A     58  56  94 E12       29.99R
MEMPHIS 1NE      N/A     60  56  88 E10       29.98R
MULESHOE 2SSW    N/A     55  52  89 SW7       30.03R
OLTON 6S         N/A     57  48  72 W8        30.00S
PALO DURO SP     N/A     63  46  52 W8        29.99S
PAMPA 2E         N/A     58  57  98 SE16      29.98S
PLAINVIEW 1S     N/A     61  53  75 W7        29.98R
SILVERTON 7ESE   N/A     58  50  75 N7        29.97R
TULIA 2ENE       N/A     61  47  60 W8        29.98S
TURKEY 2WSW      N/A     62  56  81 NE8       29.94R
UMBARGER 3NNE    N/A     57  49  76 SW8       30.01R
$$

TXZ033>036-039>041-045>048-210400
TEXAS TECH WEST TEXAS MESONET/SOUTH PLAINS

CITY           SKY/WX    TMP DP  RH WIND       PRES   REMARKS
AIKEN 3WSW       N/A     58  52  80 W9        30.00R
ANDREWS 2NE      N/A     66  47  50 SW5       30.03R
BROWNFIELD 2S    N/A     63  49  60 SW8       30.00R
DENVR CTY 7WNW   N/A     63  42  46 SW9       30.03R
GAIL 2ESE        N/A     69  55  60 S10       29.98R
LAMESA 2SE       N/A     61  52  72 S8        30.01R
LEVELLAND 4S     N/A     63  47  57 N2        30.01R
LUBBOCK 3WNW     N/A     63  52  67 NW1       30.00R
MORTON 1ENE      N/A     59  49  68 NW6       30.03R
ODONNELL 1N      N/A     64  45  50 SW7       29.99S
PLAINS 3N        N/A     64  42  44 SW8       30.03R
RALLS 1SE        N/A     63  51  63 W2        29.99S
REESE CENTER     N/A     60  52  74 NW3       30.00R
SEAGRAVES 1SW    N/A     62  51  66 SW7       30.01S
SEMINOLE 2NNE    N/A     67  47  49 SW6       30.02R
SLATON 2NE       N/A     66  46  49 N1        29.99R
SNYDER 3E        N/A     66  60  81 SE17      29.98S
SUNDOWN 8SW      N/A     65  38  37 W2        30.02R
TAHOKA 3NNE      N/A     63  43  46 SW8       29.98R
WOLFFORTH 6SSW   N/A     63  52  68 W5        30.00S
$$

TXZ031-032-036>038-042>044-210400-
TEXAS TECH WEST TEXAS MESONET/ROLLING PLAINS

CITY           SKY/WX    TMP DP  RH WIND       PRES   REMARKS
ASPERMONT 3NE    N/A     65  62  89 SE15      29.96F
FLUVANNA 3WNW    N/A     68  54  59 S15       29.98R
GRAHAM 5SSW      N/A     71  50  47 S16       29.98R
GUTHRIE 10WSW    N/A     66  61  84 SE23      29.91F
HASKELL 1NW      N/A     64  62  94 SE12      29.98F
JAYTON 1SSE      N/A     66  61  83 SE14      29.97R
KNOX CITY 3NW    N/A     64  59  83 SE13      29.99R
LK A HENRY 1NW   N/A     67  60  77 SE5       29.96R
NORTHFIELD 1S    N/A     67  60  77 S10       29.95R
ODELL 4ENE       N/A     62  60  93 E13       29.99S
PADUCAH 10SW   LGT RAIN  63  61  93 SE17G28   29.96R
POST 1NE         N/A     68  54  61 S8        29.96R
SEYMOUR 3NW      N/A     64  61  88 SE16      29.98S
SPUR 1W          N/A     67  59  76 S10       29.94R
WEINERT 2NNE     N/A     64  61  91 SE15      29.99S
WHITE RVR 6NE    N/A     70  54  57 W8        29.98R
$$

TXZ052-054-060>062-072-078-127-140-154-169-210400-
TEXAS TECH WEST TEXAS MESONET/PERMIAN BASIN/
CONCHO VALLEY/BIG COUNTRY/EDWARDS PLATEAU

CITY           SKY/WX    TMP DP  RH WIND       PRES   REMARKS
COYANOSA 2N      N/A     72  55  54 SE10      30.02R
JUNCTION 1SSW    N/A     66  63  91 S6        30.06S
MERTZON 3NNE     N/A     65  61  85 S5        30.06R
SAN ANGELO 7NW   N/A     66  61  86 SE8       30.04R
STRLNG CT 4WSW   N/A     66  59  76 SE9       30.04R
ST LAWRNCE 5SW   N/A     63  58  83 S13       30.03R
SWEETWATR 11SW   N/A     64  62  93 S15       30.02S
WALL 1E          N/A     63  59  86 SE6       30.05R
$$

TXZ055-058-074-075-080-082-210400-
TEXAS TECH WEST TEXAS MESONET/FAR WEST/SOUTHWEST MOUNTAINS/TRANS PECOS

CITY           SKY/WX    TMP DP  RH WIND       PRES   REMARKS
PRSMN GAP BBNP   N/A     71  60  69 NE22      30.02R
GUADLPE MTN NP   N/A     63  33  33 W12       30.17S
$$



714
ASUS44 KFWD 210310
RWRTX
NORTH TEXAS HOURLY WEATHER ROUNDUP
NATIONAL WEATHER SERVICE FORT WORTH TX
1000 PM CDT SUN APR 20 2014

NOTE: "FAIR" INDICATES FEW OR NO CLOUDS BELOW 12,000 FEET WITH NO
SIGNIFICANT WEATHER AND/OR OBSTRUCTIONS TO VISIBILITY.

TXZ118-119-210400-
DALLAS/FORT WORTH METROPLEX

CITY           SKY/WX    TMP DP  RH WIND       PRES   REMARKS
DFW AIRPORT    LGT RAIN  63  61  93 CALM      30.08R FOG
DALLAS LOVE    LGT RAIN  64  61  90 E5        30.07R
FTW MEACHAM    LGT RAIN  63  62  97 E7        30.07R FOG
DAL-EXECUTIVE  LGT RAIN  65  62  90 E5        30.07S
FTW-ALLIANCE   LGT RAIN  61  60  97 E6        30.07R FOG
FTW-NAS-JRB    CLOUDY    66  61  84 E8        30.11R
FTW-SPINKS     DRIZZLE   63  62  95 CALM      30.09R
ARLINGTON      LGT RAIN  65  63  93 CALM      30.08R FOG
GRAND PRAIRIE  CLOUDY    63  63 100 E5        30.10R
ADDISON        RAIN      63  59  88 NE7       30.08S
MESQUITE       CLOUDY    62  60  93 CALM      30.09
LANCASTER      RAIN      64  60  89 CALM      30.09R
$$

TXZ091>094-102>105-117-120-121-131>134-210400-
NORTH CENTRAL TEXAS

CITY           SKY/WX    TMP DP  RH WIND       PRES   REMARKS
SHRMAN/DENISON CLOUDY    62  57  84 S16G23    30.06R
GAINESVILLE    RAIN      60  58  96 S12       30.07F
BOWIE          HVY RAIN  60  60  99 SE13G23   30.04S
BRIDGEPORT     TSTM      60  60 100 E6        30.08R
DECATUR        CLOUDY    59  59  99 E7        30.07S FOG
DENTON         LGT RAIN  61  59  93 E10       30.07R
MCKINNEY       RAIN      62  60  93 E6        30.08R
GREENVILLE     RAIN      63  57  82 CALM      30.09R
ROCKWALL       HVY RAIN  62  60  94 N6        30.08R
TERRELL        LGT RAIN  65  63  93 N7        30.09R
WAXAHACHIE     DRIZZLE   63  61  94 NE6       30.08F
CLEBURNE       RAIN      64  64 100 E6        30.09R
GRANBURY       CLOUDY    67  64  92 E6        30.06S
$$

TXZ083>090-098>101-113>116-127>130-139>142-154-155-210400-
WESTERN NORTH TEXAS

CITY           SKY/WX    TMP DP  RH WIND       PRES   REMARKS
WICHITA FALLS  MOCLDY    61  59  94 SE13      30.00S
WF-KICKAPOO    PTCLDY    61  60  96 SE8       30.02F
VERNON         CLOUDY    64  60  86 SE15      30.00R
ABILENE        CLOUDY    66  62  87 S14       30.01S
ABILENE-DYESS  CLOUDY    66  63  90 S18       30.01R
BRECKENRIDGE   CLOUDY    66  65  96 SE8       30.04R
GRAHAM         CLOUDY    63  62  95 E7        30.03R
MINERAL WELLS  LGT RAIN  64  63  96 SE7       30.04R FOG
STEPHENVILLE   CLOUDY    65  62  91 S7        30.08R
COMANCHE       CLOUDY    64  64  97 S7        30.05S
BROWNWOOD      CLOUDY    64  64 100 SE6       30.06S
COLEMAN        CLOUDY    64  63  94 S7        30.05S
$$

TXZ143>147-156>162-174-175-210400-
CENTRAL TEXAS

CITY           SKY/WX    TMP DP  RH WIND       PRES   REMARKS
WACO           CLOUDY    69  63  81 CALM      30.05R
WACO-TSTC      CLOUDY    70  61  73 CALM      30.05R
WACO-MCGREGOR  MOCLDY    66  61  82 S3        30.07R
HILLSBORO      CLOUDY    65  62  88 N3        30.07S
CORSICANA      LGT RAIN  68  61  78 CALM      30.08R
MEXIA          CLOUDY    69  57  64 SE3       30.06R
HEARNE         CLOUDY    73  55  54 SE3       30.07R
CAMERON        CLOUDY    73  55  54 S6        30.06R
TEMPLE         CLOUDY    70  55  60 S7        30.09R
KILLEEN        CLOUDY    68  61  77 SE3       30.07R
KILLEEN-SKYLRK CLEAR    N/A N/A N/A CALM      30.06R
GATESVILLE     CLOUDY    68  63  83 CALM      30.08S
HAMILTON       CLOUDY    65  65 100 S8        30.07R
LAMPASAS       CLOUDY    67  64  90 SE3       30.06S
$$

TXZ095>097-106>112-122>126-135>138-148>153-164>167-210400-
EAST TEXAS

CITY           SKY/WX    TMP DP  RH WIND       PRES   REMARKS
PARIS          CLOUDY    63  55  77 NW8       30.12R
SULPHUR SPRNGS CLOUDY    67  58  73 N9        30.11S
CLARKSVILLE    CLOUDY    67  60  79 NW5       30.10R
MOUNT PLEASANT CLOUDY    70  61  73 NW3       30.10R
GILMER         CLOUDY    68  63  83 CALM      30.09R
MINEOLA        CLOUDY    68  63  83 CALM      30.09R
TYLER          PTCLDY    68  57  68 CALM      30.07R
LONGVIEW       CLOUDY    69  59  70 S3        30.06R
MARSHALL       CLEAR     63  59  87 CALM      30.09S
ATHENS         CLOUDY    66  59  77 CALM      30.06R
PALESTINE      CLOUDY    72  56  57 SE3       30.09R
JACKSONVILLE   CLEAR     69  53  57 S3        30.10R
HENDERSON      PTCLDY    67  57  70 CALM      30.09R
NACOGDOCHES    CLEAR     66  55  68 SW6       30.09R
LUFKIN         CLEAR     72  53  51 S6        30.09R
$$

SUPPLEMENTAL OBSERVATIONS (CENTRAL)

CITY           SKY/WX    TMP DP  RH WIND       PRES   REMARKS
CADDO GRASSLND   N/A     61  55  82 S9          N/A
PAT MAYSE LAKE   N/A    N/A N/A N/A S5          N/A
PALESTINE        N/A     70  54  56 S3          N/A
MCGREGOR         N/A     68  61  77 CALM        N/A
TEMPLE           N/A     70  57  64 S7          N/A
$$

SUPPLEMENTAL OBSERVATIONS (WEST)

CITY           SKY/WX    TMP DP  RH WIND       PRES   REMARKS
MILLERS CREEK    N/A     64  59  82 SE15G22     N/A
POSSUM KINGDOM   N/A    N/A N/A N/A E5          N/A
LBJ GRASSLAND    N/A     61  57  88 E9          N/A
GRANBURY         N/A     66  63  88 E6          N/A
HAMBY            N/A     66  63  88 S12         N/A
COLORADO BEND    N/A     64  61  88 S6          N/A
$$

SUPPLEMENTAL OBSERVATIONS (EAST)

CITY           SKY/WX    TMP DP  RH WIND       PRES   REMARKS
TEXARKANA        N/A    N/A N/A N/A CALM        N/A
LINDEN           N/A     64  61  88 CALM        N/A
LUFKIN           N/A     70  54  56 MISG        N/A
N SABINE NF      N/A     63  59  88 MISG        N/A
$$

SUPPLEMENTAL OBSERVATIONS ARE A COLLECTION OF AUTOMATED INSTRUMENTS
THAT ARE MAINTAINED BY A VARIETY OF FEDERAL AND STATE AGENCIES.
CERTAIN ELEMENTS...SUCH AS HUMIDITY VALUES AND SUSTAINED WIND
SPEEDS...MAY BE APPROXIMATED.